Elmira, NY

6:48 AM EST on November 13, 2019 (GMT -0500)
Elmira-Corning Regional

Weather History for KELM - September, 2019

Change the Weather History Date:

Tuesday, September 17, 2019

  Actual Average Record
Temperature  
Mean Temperature 59 °F -  
Max Temperature 73 °F 70 °F 95 °F (1991)
Min Temperature 45 °F 47 °F 26 °F (1964)
Degree Days  
Heating Degree Days 6    
Growing Degree Days 9 (Base 50)    
Moisture  
Dew Point 49 °F    
Average Humidity 90    
Maximum Humidity 100    
Minimum Humidity 41    
Precipitation  
Precipitation 0.00 in - - ()
Sea Level Pressure  
Sea Level Pressure 30.19 in    
Wind  
Wind Speed 1 mph (WNW)    
Max Wind Speed 9 mph    
Max Gust Speed 16 mph    
Visibility 4 miles    
Events Fog    
Averages and records for this station are not official NWS values.
T = Trace of Precipitation, MM = Missing Value Source: NWS Daily Summary

Daily Weather History Graph

Daily Weather History Graph

Search for Another Location

Airport or City:

Astronomy

Sep. 17, 2019 Rise Set
Actual Time 6:49 AM EDT 7:14 PM EDT
Civil Twilight 6:21 AM EDT 7:42 PM EDT
Nautical Twilight 5:48 AM EDT 8:15 PM EDT
Astronomical Twilight 5:14 AM EDT 8:48 PM EDT
Moon 9:12 PM EDT (9/17) 9:54 AM EDT (9/17)
Length of Visible Light 13h 20m
Length of Day
12h 24m
Waning Gibbous, 89% of the Moon is Illuminated
Sep 17
Waning Gibbous
Sep 21
Last Quarter
Sep 28
New
Oct 5
First Quarter
Oct 13
Full

Hourly Weather History & Observations

Time (EDT) Temp. Windchill Dew Point Humidity Pressure Visibility Wind Dir Wind Speed Gust Speed Precip Events Conditions
12:53 AM 48.9 °F - 48.0 °F 97% 30.15 in 10.0 mi Calm Calm - N/A   Clear
1:30 AM 48.0 °F - 48.0 °F 100% 30.15 in 2.0 mi Calm Calm - N/A   Partly Cloudy
1:34 AM 48.0 °F - 48.0 °F 100% 30.16 in 1.0 mi Calm Calm - N/A   Mist
1:41 AM 48.0 °F - 46.9 °F 96% 30.16 in 0.5 mi Calm Calm - N/A Fog Fog
1:53 AM 48.9 °F - 48.9 °F 100% 30.15 in 1.0 mi Calm Calm - N/A   Mist
1:58 AM 46.9 °F - 46.9 °F 100% 30.15 in 0.5 mi Calm Calm - N/A Fog Fog
2:13 AM 48.0 °F - 46.9 °F 96% 30.16 in 1.0 mi Calm Calm - N/A   Mist
2:18 AM 46.9 °F - 46.9 °F 100% 30.16 in 3.0 mi Calm Calm - N/A   Mostly Cloudy
2:21 AM 46.9 °F - 46.9 °F 100% 30.16 in 1.5 mi Calm Calm - N/A   Mostly Cloudy
2:24 AM 48.0 °F - 46.9 °F 96% 30.16 in 0.8 mi Calm Calm - N/A   Mist
2:29 AM 48.0 °F - 46.9 °F 96% 30.16 in 1.0 mi Calm Calm - N/A   Mist
2:32 AM 48.0 °F - 46.0 °F 93% 30.16 in 2.0 mi Calm Calm - N/A   Partly Cloudy
2:39 AM 48.0 °F - 46.9 °F 96% 30.16 in 4.0 mi Calm Calm - N/A   Partly Cloudy
2:53 AM 46.9 °F - 46.9 °F 100% 30.17 in 6.0 mi Calm Calm - N/A   Partly Cloudy
2:57 AM 46.9 °F - 46.0 °F 97% 30.16 in 1.8 mi Calm Calm - N/A   Partly Cloudy
3:17 AM 46.9 °F - 46.9 °F 100% 30.16 in 1.0 mi Calm Calm - N/A   Mist
3:33 AM 46.9 °F - 46.0 °F 97% 30.16 in 0.8 mi Calm Calm - N/A   Mist
3:42 AM 46.0 °F - 46.0 °F 100% 30.16 in 0.5 mi Calm Calm - N/A Fog Fog
3:53 AM 45.0 °F - 44.1 °F 97% 30.16 in 0.5 mi Calm Calm - N/A Fog Fog
4:16 AM 46.0 °F - 46.0 °F 100% 30.16 in 0.2 mi Calm Calm - N/A Fog Fog
4:28 AM 46.9 °F - 46.0 °F 97% 30.16 in 0.8 mi Calm Calm - N/A   Mist
4:45 AM 46.0 °F - 46.0 °F 100% 30.17 in 1.0 mi Calm Calm - N/A   Mist
4:48 AM 46.4 °F 45.2 °F 46.4 °F 100% 30.17 in 2.5 mi SW 3.5 mph - N/A   Scattered Clouds
4:53 AM 46.0 °F 44.8 °F 45.0 °F 96% 30.17 in 1.5 mi WSW 3.5 mph - N/A   Mostly Cloudy
5:01 AM 48.9 °F - 48.0 °F 97% 30.17 in 0.2 mi SW 4.6 mph - N/A Fog Fog
5:08 AM 48.9 °F - 48.9 °F 100% 30.17 in 0.2 mi WSW 3.5 mph - N/A Fog Fog
5:23 AM 48.9 °F - 48.9 °F 100% 30.17 in 0.2 mi WSW 4.6 mph - N/A Fog Fog
5:53 AM 48.9 °F - 48.9 °F 100% 30.18 in 0.2 mi West 4.6 mph - N/A Fog Fog
6:26 AM 48.9 °F - 48.9 °F 100% 30.19 in 0.2 mi West 3.5 mph - N/A Fog Fog
6:40 AM 48.9 °F - 48.9 °F 100% 30.20 in 0.2 mi West 3.5 mph - N/A Fog Fog
6:53 AM 48.9 °F - 48.9 °F 100% 30.20 in 0.2 mi West 3.5 mph - N/A Fog Fog
7:53 AM 50.0 °F - 48.9 °F 96% 30.22 in 0.2 mi West 4.6 mph - N/A Fog Fog
8:27 AM 50.0 °F - 50.0 °F 100% 30.22 in 0.5 mi West 3.5 mph - N/A Fog Fog
8:53 AM 50.0 °F - 50.0 °F 100% 30.23 in 0.8 mi SSW 4.6 mph - N/A   Overcast
9:01 AM 51.1 °F - 51.1 °F 100% 30.23 in 1.0 mi Calm Calm - N/A   Overcast
9:09 AM 51.1 °F - 51.1 °F 100% 30.23 in 1.2 mi Calm Calm - N/A   Overcast
9:21 AM 51.1 °F - 51.1 °F 100% 30.23 in 3.0 mi SW 3.5 mph - N/A   Overcast
9:31 AM 51.1 °F - 51.1 °F 100% 30.24 in 7.0 mi Calm Calm - N/A   Overcast
9:53 AM 52.0 °F - 52.0 °F 100% 30.25 in 10.0 mi Calm Calm - N/A   Overcast
10:01 AM 54.0 °F - 53.1 °F 97% 30.24 in 2.0 mi Calm Calm - N/A   Overcast
10:08 AM 55.0 °F - 52.0 °F 89% 30.24 in 10.0 mi Calm Calm - N/A   Scattered Clouds
10:53 AM 61.0 °F - 54.0 °F 78% 30.23 in 10.0 mi Calm Calm - N/A   Scattered Clouds
11:53 AM 68.0 °F - 52.0 °F 56% 30.22 in 10.0 mi Variable 3.5 mph - N/A   Clear
12:53 PM 71.1 °F - 51.1 °F 49% 30.21 in 10.0 mi NNE 8.1 mph - N/A   Clear
1:53 PM 72.0 °F - 51.1 °F 48% 30.19 in 10.0 mi NNE 8.1 mph 16.1 mph N/A   Clear
2:53 PM 73.0 °F - 48.9 °F 42% 30.18 in 10.0 mi ENE 9.2 mph - N/A   Clear
3:53 PM 73.0 °F - 48.0 °F 41% 30.17 in 10.0 mi NE 9.2 mph - N/A   Clear
4:53 PM 71.1 °F - 51.1 °F 49% 30.17 in 10.0 mi North 9.2 mph - N/A   Clear
5:53 PM 70.0 °F - 53.1 °F 55% 30.17 in 10.0 mi North 6.9 mph - N/A   Clear
6:53 PM 64.9 °F - 53.1 °F 65% 30.18 in 10.0 mi North 5.8 mph - N/A   Clear
7:53 PM 63.0 °F - 50.0 °F 63% 30.19 in 10.0 mi NE 4.6 mph - N/A   Clear
8:53 PM 55.9 °F - 48.9 °F 77% 30.21 in 10.0 mi Calm Calm - N/A   Clear
9:53 PM 48.9 °F - 46.9 °F 93% 30.23 in 10.0 mi Calm Calm - N/A   Clear
10:53 PM 48.9 °F - 48.0 °F 97% 30.23 in 10.0 mi Calm Calm - N/A   Clear
11:53 PM 48.0 °F - 48.0 °F 100% 30.23 in 7.0 mi Calm Calm - N/A   Clear